Regional Weather Roundup
Issued by NWS

Home | Current Version | Previous Version | Text Only | Print | Product List | Glossary On
Versions: 1 2 3 4 5 6 7 8 9 10 11 12 13 14 15 16 17 18 19 20 21 22 23 24 25 26 27 28 29 30 31 32 33 34 35 36 37 38 39 40 41 42 43 44 45 46 47 48 49 50
000
ASUS44 KFWD 261701
RWRTX
NORTH TEXAS HOURLY WEATHER ROUNDUP
NATIONAL WEATHER SERVICE FORT WORTH TX
1200 PM CDT TUE SEP 26 2017

NOTE: "FAIR" INDICATES FEW OR NO CLOUDS BELOW 12,000 FEET WITH NO
SIGNIFICANT WEATHER AND/OR OBSTRUCTIONS TO VISIBILITY.

TXZ118-119-261800-
DALLAS/FORT WORTH METROPLEX

CITY           SKY/WX    TMP DP  RH WIND       PRES   REMARKS
DFW AIRPORT    CLOUDY    86  69  56 S8        29.94S HX  90
DALLAS LOVE    CLOUDY    84  68  58 S8        29.95S
FTW MEACHAM    CLOUDY    85  70  60 SE7       29.95S
DAL-EXECUTIVE  CLOUDY    85  68  56 VRB6      29.95R
FTW-ALLIANCE   CLOUDY    82  69  64 SE8       29.95S
FTW-NAS-JRB    CLOUDY    85  67  54 SW6       29.95S
FTW-SPINKS     MOSUNNY   84  66  54 CALM      29.96S
ARLINGTON      CLOUDY    85  67  54 E12       29.95S
GRAND PRAIRIE  SUNNY     84  64  51 SE9       29.97S
ADDISON        CLOUDY    82  66  57 S10       29.97S
MESQUITE       MOSUNNY   86  66  51 S8        29.95F
LANCASTER      CLOUDY    85  67  55 S5        29.95F
$$

TXZ091>094-102>105-117-120-121-131>134-261800-
NORTH CENTRAL TEXAS

CITY           SKY/WX    TMP DP  RH WIND       PRES   REMARKS
SHRMAN/DENISON PTSUNNY   82  68  62 S7        29.98F
GAINESVILLE    CLOUDY    79  69  73 SE6       29.99S
BOWIE          CLOUDY    74  72  91 CALM      29.99S
BRIDGEPORT     CLOUDY    75  74  95 E3        29.99S
DECATUR        CLOUDY    76  72  88 E5        29.97S
DENTON         CLOUDY    81  70  69 E6        29.96S
MCKINNEY       CLOUDY    83  70  64 SW6       29.96S
BONHAM         MOSUNNY   84  67  58 SE6       29.97F
ROCKWALL       CLOUDY    85  69  57 S9G16     29.96F
TERRELL        PTSUNNY   86  66  51 S7        29.95F
WAXAHACHIE     PTSUNNY   85  68  56 S3        29.96F
CLEBURNE       CLOUDY    82  70  65 S8        29.97S
GRANBURY       PTSUNNY   83  71  66 S6        29.97S
$$

TXZ083>090-098>101-113>116-127>130-139>142-154-155-261800-
WESTERN NORTH TEXAS

CITY           SKY/WX    TMP DP  RH WIND       PRES   REMARKS
WICHITA FALLS  NOT AVBL
WF-KICKAPOO    CLOUDY    73  72  96 E6        29.99F
VERNON         CLOUDY    67  63  86 N13G18    30.02R
ABILENE        CLOUDY    76  70  82 VRB6      29.97F
ABILENE-DYESS  PTSUNNY   77  70  80 S3        29.95F
BRECKENRIDGE   CLOUDY    79  69  72 S7        29.96F HAZE
CISCO          PTSUNNY   75  72  88 S7        29.98F
EASTLAND       CLOUDY    76  70  81 SE8       29.97S
RANGER         CLOUDY    76  71  84 S6        29.97F
MINERAL WELLS  CLOUDY    79  72  79 VRB3      29.95F
STEPHENVILLE   PTSUNNY   79  71  75 CALM      29.99F
COMANCHE       PTSUNNY   78  74  88 E5        29.97S
BROWNWOOD      CLOUDY    81  70  69 SE6       29.96F
COLEMAN        LGT RAIN  70  69  95 SW5       29.98R
$$

TXZ143>147-156>162-174-175-261800-
CENTRAL TEXAS

CITY           SKY/WX    TMP DP  RH WIND       PRES   REMARKS
WACO           PTSUNNY   86  69  56 SE7       29.93F HX  90
WACO-TSTC      MOSUNNY   86  66  51 S9        29.93F
WACO-MCGREGOR  MOSUNNY   86  70  58 SE7       29.93F HX  90
HILLSBORO      CLOUDY    85  67  55 SE8       29.95S
CORSICANA      SUNNY     87  68  52 SE10      29.95F HX  90
MEXIA          MOSUNNY   86  65  50 S7G18     29.93F
HEARNE         CLOUDY    83  73  70 CALM      29.94S
CAMERON        PTSUNNY   86  72  62 SE8       29.92F HX  92
TEMPLE         MOSUNNY   85  72  65 SE9       29.93F HX  91
KILLEEN        NOT AVBL
FORT HOOD      PTSUNNY  N/A N/A N/A S8        29.90F
GATESVILLE     MOSUNNY   82  70  65 SE5       29.96S
HAMILTON       CLOUDY    80  72  75 S6        29.97F
LAMPASAS       CLOUDY    81  73  76 SE6       29.94F
$$

TXZ095>097-106>112-122>126-135>138-148>153-164>167-261800-
EAST TEXAS

CITY           SKY/WX    TMP DP  RH WIND       PRES   REMARKS
PARIS          SUNNY     87  68  52 S5        29.98F HX  90
SULPHUR SPRNGS MOSUNNY   85  66  53 S3        29.99S
MOUNT PLEASANT SUNNY     85  67  54 CALM      29.98F
GILMER         MOSUNNY   85  67  54 CALM      29.97S
MINEOLA        SUNNY     86  68  54 SE5       29.96F
TYLER          SUNNY     86  65  49 VRB7      29.95F
LONGVIEW       PTSUNNY   87  68  52 SE6       29.95F HX  90
MARSHALL       PTSUNNY   86  67  52 CALM      29.98F
ATHENS         PTSUNNY   82  64  54 SE3       29.94F
PALESTINE      MOSUNNY   86  70  58 E7        29.95F HX  91
JACKSONVILLE   MOSUNNY   83  68  59 CALM      29.98F
HENDERSON      MOSUNNY   87  68  54 S5        29.96F HX  90
CENTER         PTSUNNY   90  72  55 NE5       29.96F HX  97
NACOGDOCHES    SUNNY     86  70  58 E6        29.95F HX  90
LUFKIN         MOSUNNY   85  71  63 CALM      29.94F HX  90
$$

SUPPLEMENTAL OBSERVATIONS (NWS FORT WORTH AREA)

CITY           SKY/WX    TMP DP  RH WIND       PRES   REMARKS
$$

SUPPLEMENTAL OBSERVATIONS (NWS NORMAN AREA)

CITY           SKY/WX    TMP DP  RH WIND       PRES   REMARKS
GOODLETT         N/A     63  59  87 N18       30.05S
ODELL            N/A     65  64  94 N15       30.04R
CROWELL          N/A     66  64  93 N21       30.03S
KNOX CITY        N/A     69  65  88 N15G22    30.00F
SEYMOUR        HVY RAIN  68  65  90 N16       29.99F
$$

SUPPLEMENTAL OBSERVATIONS (NWS SAN ANGELO AREA)

CITY           SKY/WX    TMP DP  RH WIND       PRES   REMARKS
WEINERT          N/A     70  67  92 N15       30.00S
HASKELL        LGT RAIN  70  68  95 N14       29.99R
THROCKMORTON     N/A     75  72  89 SE5       29.98F
STAMFORD         N/A     75  72  89 NW6       29.98F
CLYDE            N/A     77  70  80 S6        29.99F
$$

SUPPLEMENTAL OBSERVATIONS (NWS SHREVEPORT AREA)

CITY           SKY/WX    TMP DP  RH WIND       PRES   REMARKS
$$

SUPPLEMENTAL OBSERVATIONS ARE A COLLECTION OF AUTOMATED INSTRUMENTS
THAT ARE MAINTAINED BY A VARIETY OF FEDERAL AND STATE AGENCIES.
CERTAIN ELEMENTS...SUCH AS HUMIDITY VALUES AND SUSTAINED WIND
SPEEDS...MAY BE APPROXIMATED.





USA.gov is the U.S. government's official web portal to all federal, state and local government web resources and services.